User: anonymous   Login
Location: Huntsville
(41.2590°N, 111.7678°W)
Time: 03:25:09
(UTC+00:00)
Language:

Vanguard 3 - Orbit

View from above orbital plane
View from above orbital plane
View from above satellite
View from above satellite

Ground track
Ground track

The orbit data is extracted from the following two-line orbital elements,

1 00020U 59007A   22278.45577588  .00000790  00000-0  32894-3 0  9998
2 00020  33.3430  68.4344 1664035  44.2830 327.9466 11.56278048327826
Epoch (UTC): 05 October 2022 10:56:19
Eccentricity: 0.1664035
inclination: 33.3430°
perigee height: 508 km
apogee height: 3257 km
right ascension of ascending node: 68.4344°
argument of perigee: 44.2830°
revolutions per day: 11.56278048
mean anomaly at epoch: 327.9466°
orbit number at epoch: 32782

The dashed part of the orbit path shows where the satellite is in the earth's shadow,  

DLR